Dillon, MT

8:02 PM MDT on September 27, 2016 (GMT -0600)
Dillon

Weather History for KDLN - November, 2013

Change the Weather History Date:

Thursday, November 7, 2013

  Actual Average Record
Temperature  
Mean Temperature 43 °F 35 °F  
Max Temperature 53 °F 46 °F 71 °F (2006)
Min Temperature 32 °F 24 °F 0 °F (2003)
Degree Days  
Heating Degree Days 22    
Month to date heating degree days 208  
Since 1 July heating degree days 1213  
Cooling Degree Days 0    
Month to date cooling degree days 0  
Year to date cooling degree days 247  
Moisture  
Dew Point 29 °F    
Average Humidity 60    
Maximum Humidity 75    
Minimum Humidity 44    
Precipitation  
Precipitation 0.01 in 0.01 in 0.63 in (1969)
Month to date precipitation 0.01 0.10  
Year to date precipitation 9.74 10.03  
Snow  
Snow 0.00 in - - ()
Snow Depth 0.00 in    
Sea Level Pressure  
Sea Level Pressure 30.01 in    
Wind  
Wind Speed 11 mph (SSW)    
Max Wind Speed 32 mph    
Max Gust Speed 41 mph    
Visibility 10 miles    
Events Rain    
T = Trace of Precipitation, MM = Missing Value Source: NWS Daily Summary

Daily Weather History Graph

Daily Weather History Graph

Search for Another Location

Airport or City:

Trip Planner

Search our weather history database for the weather conditions in past years. The results will help you decide how hot, cold, wet, or windy it might be!

Date:

Astronomy

Nov. 07, 2013 Rise Set
Actual Time 7:17 AM MST 5:09 PM MST
Civil Twilight 6:46 AM MST 5:40 PM MST
Nautical Twilight 6:11 AM MST 6:15 PM MST
Astronomical Twilight 5:36 AM MST 6:50 PM MST
Moon 11:32 AM MST (11/7) 9:23 PM MST (11/7)
Length of Visible Light 10h 53m
Length of Day
9h 51m
Waxing Crescent, 23% of the Moon is Illuminated
Nov 7
Waxing Crescent
Nov 9
First Quarter
Nov 17
Full
Nov 25
Last Quarter
Dec 2
New

Hourly Weather History & Observations

Time (MST) Temp. Windchill Dew Point Humidity Pressure Visibility Wind Dir Wind Speed Gust Speed Precip Events Conditions
12:53 AM 37.0 °F 31.0 °F 24.1 °F 59% 30.28 in 10.0 mi SSW 8.1 mph - N/A   Overcast
1:53 AM 35.1 °F 28.6 °F 24.1 °F 64% 30.28 in 10.0 mi SSW 8.1 mph - N/A   Overcast
2:53 AM 33.1 °F 26.9 °F 24.1 °F 70% 30.28 in 10.0 mi South 6.9 mph - N/A   Mostly Cloudy
3:53 AM 32.0 °F 24.2 °F 25.0 °F 75% 30.27 in 10.0 mi SSW 9.2 mph - N/A   Mostly Cloudy
4:53 AM 34.0 °F 31.0 °F 26.1 °F 73% 30.25 in 10.0 mi SSW 3.5 mph - N/A   Overcast
5:53 AM 34.0 °F 29.8 °F 26.1 °F 73% 30.24 in 10.0 mi South 4.6 mph - N/A   Overcast
6:53 AM 34.0 °F 29.8 °F 26.1 °F 73% 30.23 in 10.0 mi SSE 4.6 mph - N/A   Overcast
7:53 AM 35.1 °F - 27.0 °F 72% 30.21 in 10.0 mi Calm Calm - N/A   Clear
8:53 AM 37.9 °F 35.5 °F 28.9 °F 70% 30.19 in 10.0 mi West 3.5 mph - N/A   Clear
9:53 AM 42.1 °F 40.2 °F 30.0 °F 62% 30.15 in 10.0 mi West 3.5 mph - N/A   Partly Cloudy
10:53 AM 45.0 °F 43.5 °F 28.9 °F 53% 30.10 in 10.0 mi SSE 3.5 mph - N/A   Mostly Cloudy
11:53 AM 51.1 °F - 30.0 °F 44% 30.04 in 10.0 mi SSW 15.0 mph 23.0 mph N/A   Partly Cloudy
12:53 PM 52.0 °F - 30.0 °F 43% 29.99 in 10.0 mi South 15.0 mph 21.9 mph N/A   Clear
1:53 PM 50.0 °F - 30.0 °F 46% 29.98 in 10.0 mi South 12.7 mph - N/A   Overcast
2:53 PM 48.9 °F - 30.9 °F 50% 29.95 in 10.0 mi South 11.5 mph - N/A   Overcast
3:53 PM 48.0 °F - 30.0 °F 50% 29.89 in 10.0 mi SE 13.8 mph 17.3 mph N/A   Mostly Cloudy
4:53 PM 46.0 °F 41.0 °F 28.9 °F 51% 29.87 in 10.0 mi ESE 10.4 mph 18.4 mph N/A   Mostly Cloudy
5:53 PM 46.9 °F - 28.9 °F 50% 29.81 in 10.0 mi South 23.0 mph 28.8 mph N/A   Overcast
6:53 PM 46.9 °F - 30.9 °F 54% 29.81 in 10.0 mi South 20.7 mph 35.7 mph 0.00 in   Overcast
7:53 PM 45.0 °F 36.6 °F 32.0 °F 60% 29.78 in 10.0 mi South 21.9 mph 27.6 mph N/A   Overcast
8:53 PM 45.0 °F 37.1 °F 30.0 °F 56% 29.71 in 10.0 mi South 19.6 mph 29.9 mph N/A   Mostly Cloudy
9:53 PM 44.1 °F 35.4 °F 35.1 °F 71% 29.72 in 10.0 mi SW 21.9 mph 32.2 mph 0.00 in Rain Light Rain
10:33 PM 37.4 °F 27.5 °F 33.8 °F 87% 29.81 in 6.0 mi WNW 18.4 mph 41.4 mph 0.01 in Rain Light Rain
10:53 PM 36.0 °F 30.3 °F 32.0 °F 86% 29.79 in 9.0 mi NNW 6.9 mph 16.1 mph 0.01 in   Overcast
11:07 PM 35.6 °F 31.7 °F 32.0 °F 87% 29.82 in 10.0 mi SE 4.6 mph - N/A   Overcast
11:53 PM 36.0 °F 28.5 °F 25.0 °F 64% 29.81 in 10.0 mi West 10.4 mph - N/A   Overcast